sat.trackr.live / text

‹ back to catalog

STARLINK-36730

NORAD 67874 · 2026-034AA

PAYLOAD ACTIVE UNKNOWN

§ Identity

Operator
Country
US
Launch date
2026-02-20
Launch site
AFETR
Launch vehicle
Mass (kg)
RCS (m²)

Purposes: comms

External: N2YO · Heavens-Above · Gunter

§ Orbital elements

Epoch: 2026-05-25T04:28:05.849184Z

Period
93.85 min
Inclination
53.1574°
Eccentricity
0.0001076
Mean motion
15.34410706 rev/d
Perigee alt
461.9 km
Apogee alt
463.4 km
Semi-major
6,840.8 km
B*
5.2031e-4
RAAN
207.0764°
Arg perigee
80.9270°
Mean anomaly
279.1854°
Rev number
1,577

§ Raw data

STARLINK-367301 67874U 26034AA  26145.18617881  .00017250  00000+0  52031-3 0  99932 67874  53.1574 207.0764 0001076  80.9270 279.1854 15.34410706 15772

JSON: /api/v1/satellites/67874 · /tle

For live sub-satellite position, see the globe view (requires WebGL).

§ Visibility from observer

Set your observer location to see the next 7 days of passes ≥ 10°. The values pass through the URL so the page stays shareable.

No JS? Fill the form by hand. The geolocation button needs JavaScript.